STARLINK-32478, 61726

Orbit data source: Space-Track

STARLINK-32478, 61726 is a payload satellite owned by SpaceX/Seattle (US) in LEO that was launched on Wed, 30 Oct 2024 UTC via an FALCON 9 launch vehicle from the Air Force Eastern Test Range (AFETR). Payload-class satellites include a variety of spacecraft equipped with specific instruments for various scientific and technological missions. These include communications satellites like Starlink; space stations such as the ISS; scientific satellites like the Hubble; Earth observation satellites from companies like Planet Labs, Umbra, and HawkEye 360; GPS; miniature CubeSats for education and research; and military/defense satellites.

Loading next visibility...
Identifier
61726, 2024-196V
Orbit
LEO
Country
Flag of USUS
Related business
Manufacturer
SpaceX/Seattle
Mission
Operational Commercial Communications
Bus & Motor
STARLINK V2M, Unknown motor
Mass
730 kg wet, ~700 kg dry
Launch date (UTC)
2024-10-30 (11 months ago)
Launch vehicle
FALCON 9
Launch site
Air Force Eastern Test Range (AFETR)
Object type
Payload
Rocket body
Debris
Shape & HBR
Box + 2 Pan, 14.5 m
Radar Cross Section
36.964 m², Large (>1 m²)

Expand to show TLE details & history
Last TLE update: 1 day ago

TLE from 1 day ago
0 STARLINK-32478
1 61726U 24196V   25260.20000949  .00001536  00000-0  63981-4 0  9999
2 61726  53.1578 187.2406 0001427 105.7607 254.3551 15.30191780 50590
Epoch: 2025-09-17T04:48Z
TLE epoch observation values (Epoch: 2025-09-17T04:48:00.819Z)
Latitude
-0.00006°
Longitude
118.85777°
Altitude
476.403 km
Speed
7.629 km/s
True Right ascension
12h 28m 57s
True Declination
0° 00' 00"
Sunlit
Object was in daylight at epoch
Visualization orbit readout
Latitude
Unknown
Longitude
Unknown
Altitude
Unknown
Speed
Unknown
Apparent Right ascension
Unknown
Apparent Declination
Unknown
Sunlit
N/A
Visualization observer readout
Local Sidereal Time
01:46:31
Azimuth
Unknown
Elevation
Unknown
Doppler factor
Unknown
Orbital elements
Apogee altitude
476.474 km
Perigee altitude
474.518 km
Semi-major axis
6,853.633 km
Eccentricity
0.00014
Inclination
53.1578°
RAAN
187.2406°
Arg. of periapsis
105.7607°
True anomaly
254.33935°
Mean anomaly
254.3551°
Eccentric anomaly
254.34723°
Mean motion
3.82527 °/min
Orbital period
94.11 mins
BSTAR
0.000063981
Loading maneuver chart data...
Computing Atmospheric mass density...
Loading historical data...
Loading historical data...
Loading historical data...
Loading historical data...
Loading historical data...
Loading historical data...
Loading historical data...

Documentation

Showing up to 5 results
|